www.pogodaiklimat.ru

Погода и климат >> Архив погоды >> Россия >> Белгородская область >> Белгород


АРХИВ ПОГОДЫ в Белгороде

Время (UTC), дата Ветер
(напр.,м/с)
 
Видим.   Явления Облачность Т
(С)
Тd
(С)
f
(%)
Тe
(С)
Тes
(С)
Комфортность P
(гПа)
Po
(гПа)
Тmin
(С)
Tmax
(С)
R
(мм)
R24
(мм)
S
(см)
06 16.08 С 3 10 км 4/0
[Ci fib]
+25.6 +11.5 41 +27 +32 жарко 1006.4 981.1 +19.2
09 16.08 СЗ 3 10 км 8/0
[Ci fib]
+29.2 +10.9 32 +30 +39 жарко 1005.2 980.2
12 16.08 С 2 10 км 5/3 1500 м
[Cu hum Ci fib]
+31.6 +10.4 27 +31 +38 жарко 1004.4 979.7
15 16.08 СЗ 4 10 км 8/3 1500 м
[Sc Ci fib]
+30.4 +10.3 29 +30 +31 жарко 1004.3 979.5
18 16.08 З 3 10 км 8/0
[Ac trans Ci fib]
+26.3 +11.7 40 +28 +28 жарко 1005.3 980.2 +32.4
21 16.08 СЗ 3 10 км 8/0
[Ac trans Ci fib]
+22.0 +16.0 69 +26 +26 душно 1006.5 980.9
00 17.08 СЗ 4 10 км 6/0
[Ci fib]
+19.3 +17.0 87 +21 +21 комфорт 1006.6 980.9
03 17.08 СЗ 4 10 км слаб. ливневой дождь 9/8 1000 м
[Cb calv Ac trans Ci fib]
+17.5 +15.9 90 +17 +17 по сезону 1006.7 980.9 +17.5 0.0
06 17.08 З 2 4000 м дымка {ливн. осадки} 9/9 210 м
[St]
+18.6 +17.3 92 +20 +21 тепло 1007.2 981.5 +17.5 0.0
09 17.08 1 4000 м дымка 10/10 400 м
[Cb calv]
+20.3 +17.7 85 +25 +25 комфорт 1007.6 981.9
12 17.08 З 3 5000 м дымка {ливн. осадки} 10/10 330 м
[Cb calv]
+20.3 +18.2 88 +24 +24 комфорт 1007.3 981.6
15 17.08 СЗ 4 10 км 8/5 600 м
[Cb calv Ac trans]
+20.4 +16.6 79 +24 +24 комфорт 1007.7 982.0 0.0
18 17.08 С 1 10 км 3/3 1500 м
[Sc]
+17.4 +16.0 91 +18 +18 прохладно 1008.8 982.8 +21.2 0.0
21 17.08 СЗ 2 10 км 10/10 300 м
[St]
+17.3 +16.4 94 +18 +18 по сезону 1009.0 983.0
00 18.08 СЗ 1 10 км 10/10 240 м
[St]
+17.0 +15.7 92 +18 +18 тепло 1009.6 983.6
03 18.08 З 3 10 км 10/10 240 м
[St]
+16.5 +15.3 93 +16 +16 по сезону 1009.8 983.7 +16.4
06 18.08 С 2 10 км 9/9 420 м
[Cb calv]
+17.1 +14.5 85 +17 +18 по сезону 1010.7 984.6 +15.8
09 18.08 ЮЗ 3 10 км 9/9 1000 м
[Cb calv]
+19.4 +13.8 70 +21 +22 комфорт 1011.3 985.4
12 18.08 З 4 10 км 8/4 1500 м
[Sc Ci fib]
+20.4 +13.4 64 +23 +26 комфорт 1012.4 986.5
15 18.08 З 4 10 км 9/5 1500 м
[Sc Ac trans]
+19.0 +13.0 68 +20 +20 прохладно 1013.6 987.6
18 18.08 СЗ 2 10 км 8/0
[Ac trans]
+16.2 +12.6 79 +16 +16 прохладно 1015.1 988.8 +21.0
21 18.08 С 1 10 км 8/0
[Ci fib]
+14.6 +12.2 86 +15 +15 прохладно 1016.1 989.6
00 19.08 СВ 1 10 км 4/0
[Ci fib]
+13.8 +12.7 93 +14 +14 по сезону 1016.7 990.2
03 19.08 С 2 4000 м дымка 4/0
[Ci fib]
+12.0 +11.7 98 +11 +11 холодно 1018.2 991.5 +11.5
06 19.08 СВ 3 10 км 3/3 1500 м
[Cu hum]
+17.9 +14.0 78 +18 +22 по сезону 1018.6 992.3 +11.5
09 19.08 С 4 10 км 6/6 1000 м
[Cu hum]
+22.1 +13.0 56 +25 +28 комфорт 1018.6 992.7
12 19.08 С 3 10 км 6/6 1000 м
[Cu hum]
+24.7 +13.2 49 +27 +30 жарко 1018.4 992.8
15 19.08 СВ 3
{10}
10 км 3/3 1500 м
[Sc]
+25.0 +12.9 47 +27 +28 жарко 1018.7 993.1
18 19.08 СВ 1 10 км ясно +21.3 +13.7 62 +24 +24 комфорт 1020.3 994.3 +25.6
21 19.08 СВ 1 10 км ясно +19.1 +13.5 70 +21 +21 комфорт 1020.8 994.6
00 20.08 СВ 2 10 км ясно +16.7 +13.1 79 +17 +17 тепло 1021.2 994.8
03 20.08 С 2 10 км ясно +15.4 +12.8 84 +15 +15 прохладно 1022.0 995.5 +15.0
06 20.08 С 2 10 км ясно +22.1 +14.1 60 +25 +31 комфорт 1022.5 996.5 +15.0
09 20.08 СВ 4 10 км 3/3 1500 м
[Cu hum]
+26.6 +11.7 39 +28 +34 жарко 1022.0 996.4
12 20.08 СВ 3 10 км 3/3 1500 м
[Cu hum]
+28.6 +11.7 35 +29 +35 жарко 1021.0 995.6
15 20.08 СВ 4 10 км 1/1 1500 м
[Cu hum]
+28.1 +11.2 35 +29 +30 жарко 1021.0 995.6
18 20.08 С 2 10 км ясно +22.9 +12.2 51 +26 +26 жарко 1022.5 996.7 +29.1
21 20.08 С 2 10 км ясно +19.7 +11.1 58 +22 +22 комфорт 1023.2 997.0
00 21.08 С 3 10 км ясно +17.2 +10.0 63 +17 +17 тепло 1023.3 996.9
03 21.08 СВ 3 10 км ясно +15.8 +10.3 70 +15 +15 по сезону 1023.6 997.1 +15.2
06 21.08 СВ 2 10 км ясно +22.9 +13.4 55 +26 +32 жарко 1023.6 997.7 +15.2
09 21.08 СВ 5
{11}
10 км ясно +27.2 +12.4 40 +29 +35 жарко 1022.3 996.8
12 21.08 СВ 5
{10}
10 км ясно +28.9 +11.0 33 +29 +34 жарко 1020.7 995.4
15 21.08 СВ 6
{13}
10 км ясно +28.4 +10.9 34 +29 +30 жарко 1019.8 994.4
18 21.08 СВ 3 10 км ясно +22.4 +12.2 52 +25 +25 комфорт 1020.5 994.6 +29.6
21 21.08 СВ 2 10 км ясно +20.2 +12.6 62 +23 +23 комфорт 1020.6 994.5
00 22.08 СВ 3 10 км ясно +17.6 +12.8 73 +18 +18 тепло 1020.7 994.4
03 22.08 СВ 3 10 км ясно +15.8 +13.1 84 +15 +15 по сезону 1020.6 994.1 +15.6
06 22.08 СВ 3 10 км 4/0
[Ci fib]
+23.0 +14.4 58 +27 +31 душно 1020.1 994.3 +15.6
09 22.08 СВ 4 10 км 8/0
[Ci fib]
+28.1 +13.9 42 +30 +37 жарко 1019.5 994.2
12 22.08 СВ 3 10 км 4/0
[Ci fib]
+28.4 +15.3 45 +31 +38 душно 1019.2 993.8
15 22.08 С 4 10 км 3/0
[Ac trans]
+29.2 +13.9 39 +31 +32 жарко 1018.9 993.6
18 22.08 С 3 10 км 5/0
[Ci fib]
+23.7 +13.0 51 +26 +26 жарко 1020.2 994.4 +30.2
21 22.08 С 2 10 км 5/0
[Ci fib]
+20.4 +12.8 62 +23 +23 комфорт 1020.9 994.8
00 23.08 С 5 10 км 5/0
[Ci fib]
+19.0 +16.9 88 +20 +20 тепло 1022.0 995.8
03 23.08 С 4 10 км 5/0
[Ci fib]
+16.8 +15.6 93 +16 +16 по сезону 1022.6 996.3 +16.8

 

Местоположение метеостанции Белгород (Белгородская область, Россия): широта 50.63 долгота 36.58 высота над уровнем моря 224 м.

В архиве по умолчанию представлена погода в Белгороде за последнюю неделю. Архивные данные за месяц целиком и за предыдущие месяцы, начиная с января 2011 года, Вы можете получить, выбрав интересующий диапазон дат из раскрывающегося списка и нажав кнопку "Ввод!".


*Определитесь, кто Вы:
робот инопланетянин человек

Внимание! Время в таблицах - всемирное. Для получения местного времени необходимо прибавить поправку, которая равна 3 ч.

Смотрите также архив погоды в соседних городах и на ближайших метеорологических станциях:

Погода в Золочеве (Львовская область, Украина) (58 км)
Погода в Готне (Белгородская область, Россия) (60 км)
Погода в Обояни (Курская область, Россия) (66 км)
Погода в Харькове (Харьковская область, Украина) (80 км)
Погода в Богородицком (Белгородская область, Россия) (81 км)
Погода в Великом Бурлуке (Харьковская область, Украина) (84 км)
Погода в Боходухове (Харьковская область, Украина) (88 км)
Погода в Новом Осколе (Белгородская область, Россия) (92 км)
Погода в Комсомольском (Донецкая область, Украина) (115 км)
Погода в Тиме (Курская область, Россия) (117 км)

Пояснения к столбцам:

Ветер - указаны скорость ветра в м/с - средняя за 10 мин, порывы в срок и между сроками (в фигурных скобках) и направление, откуда дует ветер: С - северный, СВ - северо-восточный, В - восточный, ЮВ - юго-восточный, Ю - южный, ЮЗ - юго-западный, З - западный, СЗ - северо-западный.
Видимость - горизонтальная дальность видимости в метрах или километрах. При видимости от 1 до 10 км при отсутствии осадков обычно наблюдается дымка, при ухудшении видимости до 1 км и менее - туман. В сухую погоду видимость может ухудшаться дымом, пылью или мглою.
Явления - указаны атмосферные явления, наблюдавшиеся в срок или в последний час перед сроком; фигурными скобками обозначены явления, наблюдавшиеся между сроками (за 1-3 часа до срока); квадратными скобками обозначены град или гололедные отложения с указанием их диаметра в мм.
Облачность - указаны через наклонную черту общая и нижняя облачность в баллах и высота нижней границы облаков в метрах; квадратными скобками обозначены формы облаков: Ci - перистые, Cs - перисто-слоистые, Cc - перисто-кучевые, Ac - высококучевые, As - высокослоистые, Sc - слоисто-кучевые, Ns - слоисто-дождевые, Cu - кучевые, Cb - кучево-дождевые. Подробнее классификацию облаков см. в Атласе облаков (PDF).
T - Температура воздуха - температура, измеренная на высоте 2 м над землей.
Td - Температура точки росы - температура, при понижении до которой содержащийся в воздухе водяной пар достигнет насыщения.
f - Относительная влажность воздуха - влажноcть воздуха, измеренная на высоте 2 м над землей.
Te - Эффективная температура - температура, которую ощущает одетый по сезону человек в тени. Характеристика душности погоды. При расчете учитывается влияние влажности воздуха и скорости ветра на теплоощущения человека.
Tes - Эффективная температура на солнце - температура, которую ощущает человек, с поправкой на солнечный нагрев. Характеристика знойности погоды. Зависит от высоты солнца над горизонтом, облачности и скорости ветра. Ночью, в пасмурную погоду, а также при ветре 12 м/с и более поправка равна нулю.
P - Атмосферное давление - приведенное к уровню моря атмосферное давление.
Po - Атмосферное давление - измеренное на уровне метеостанции атмосферное давление.
Tmin - Минимальная температура - минимум температуры воздуха на высоте 2 м над землей.
Tmax - Максимальная температура - максимум температуры воздуха на высоте 2 м над землей.
R - Количество осадков - Количество выпавших осадков за период времени, мм. При наведении курсора мыши на число - период времени, за который выпало указанное количество осадков.
R24 - Количество осадков - Количество выпавших осадков за 24 часа, мм.
S - Снежный покров - Высота снежного покрова, см. При наведении курсора мыши на число - состояние снежного покрова и степень покрытия местности в баллах.